Location: Newark
(45.7425°N, 0.7617°W)
Time: 03:48:53
(UTC+00:00)

CUBESAT XI-V - Visible Passes

Search period start: 02 April 2020 00:00
Search period end: 12 April 2020 00:00
Orbit: 669 x 693 km, 98.0° (Epoch: 01 April)

Date Brightness Start Highest point End Pass type
(mag) Time Alt. Az. Time Alt. Az. Time Alt. Az.
02 Apr ? 01:39:16 25° NNE 01:39:16 25° NNE 01:41:27 10° N visible
02 Apr ? 03:17:41 13° NW 03:17:41 13° NW 03:18:18 10° NW visible
03 Apr ? 00:37:14 12° NE 00:37:14 12° NE 00:38:24 10° NNE visible
03 Apr ? 02:15:40 27° NNW 02:15:40 27° NNW 02:17:47 10° NNW visible
04 Apr ? 01:13:38 21° NE 01:13:38 21° NE 01:15:57 10° N visible
04 Apr ? 02:52:03 20° NW 02:52:03 20° NW 02:53:42 10° NNW visible
05 Apr ? 01:50:01 31° NNE 01:50:01 31° NNE 01:52:36 10° N visible
05 Apr ? 03:28:27 12° NW 03:28:27 12° NW 03:28:58 10° NW visible
06 Apr ? 00:48:00 15° NE 00:48:00 15° NE 00:50:06 10° NNE visible
06 Apr ? 02:26:25 30° NNW 02:26:25 30° NNW 02:28:49 10° NNW visible
07 Apr ? 01:24:23 27° NE 01:24:23 27° NE 01:27:13 10° N visible
07 Apr ? 03:02:49 20° NW 03:02:49 20° NW 03:04:35 10° NNW visible
08 Apr ? 02:00:47 38° N 02:00:47 38° N 02:03:44 10° N visible
08 Apr ? 03:39:13 11° WNW 03:39:13 11° WNW 03:39:26 10° NW visible
09 Apr ? 00:58:45 19° NE 00:58:45 19° NE 01:01:34 10° NNE visible
09 Apr ? 02:37:10 32° NW 02:37:10 32° NW 02:39:49 10° NNW visible
10 Apr ? 01:35:09 34° NE 01:35:09 34° NE 01:38:26 10° N visible
10 Apr ? 03:13:34 19° WNW 03:13:34 19° WNW 03:15:23 10° NW visible
11 Apr ? 00:33:07 12° ENE 00:33:33 12° ENE 00:35:12 10° NE visible
11 Apr ? 02:11:33 46° N 02:11:33 46° N 02:14:49 10° NNW visible
